Meteo orario Gola

Oggi, 20 Aprile, Martedi

Tempo Temperatura Precipitazioni Vento Pressione Umidità
00:00 +8°C° 0 mm 2 m/s 746 mm Hg 69%
01:00 +8°C° 0 mm 2 m/s 745 mm Hg 67%
02:00 +7°C° 0 mm 2 m/s 745 mm Hg 70%
03:00 +6°C° 0 mm 2 m/s 745 mm Hg 73%
04:00 +7°C° 0 mm 1 m/s 745 mm Hg 76%
05:00 +8°C° 0 mm 1 m/s 745 mm Hg 74%
06:00 +9°C° 0 mm 1 m/s 745 mm Hg 72%
07:00 +10°C° 0 mm 1 m/s 746 mm Hg 70%
08:00 +10°C° 0 mm 2 m/s 745 mm Hg 65%
09:00 +13°C° 0 mm 2 m/s 745 mm Hg 60%
10:00 +14°C° 0 mm 2 m/s 745 mm Hg 54%
11:00 +14°C° 0.2 mm 2 m/s 745 mm Hg 52%
12:00 +15°C° 0.2 mm 2 m/s 744 mm Hg 51%
13:00 +15°C° 0 mm 2 m/s 744 mm Hg 51%
14:00 +15°C° 0.3 mm 2 m/s 744 mm Hg 52%
15:00 +15°C° 0.3 mm 2 m/s 744 mm Hg 53%
16:00 +15°C° 0.3 mm 2 m/s 744 mm Hg 54%
17:00 +14°C° 0.2 mm 1 m/s 744 mm Hg 60%
18:00 +13°C° 0.2 mm 1 m/s 744 mm Hg 65%
19:00 +11°C° 0.2 mm 1 m/s 744 mm Hg 71%
20:00 +11°C° 0 mm 1 m/s 744 mm Hg 73%
21:00 +10°C° 0 mm 1 m/s 744 mm Hg 75%
22:00 +9°C° 0 mm 2 m/s 744 mm Hg 76%
23:00 +9°C° 0 mm 2 m/s 743 mm Hg 79%

Domani, 21 Aprile, Mercoledi

Tempo Temperatura Precipitazioni Vento Pressione Umidità
00:00 +8°C° 0 mm 2 m/s 743 mm Hg 81%
01:00 +8°C° 0 mm 2 m/s 743 mm Hg 83%
02:00 +7°C° 0.1 mm 2 m/s 743 mm Hg 85%
03:00 +7°C° 0.1 mm 2 m/s 743 mm Hg 87%
04:00 +7°C° 0.1 mm 2 m/s 743 mm Hg 88%
05:00 +8°C° 0.2 mm 3 m/s 743 mm Hg 87%
06:00 +8°C° 0.2 mm 3 m/s 743 mm Hg 85%
07:00 +9°C° 0.2 mm 3 m/s 743 mm Hg 84%
08:00 +10°C° 0.1 mm 4 m/s 743 mm Hg 77%
09:00 +11°C° 0.1 mm 4 m/s 743 mm Hg 70%
10:00 +13°C° 0.1 mm 4 m/s 743 mm Hg 63%
11:00 +13°C° 0 mm 5 m/s 743 mm Hg 56%
12:00 +14°C° 0 mm 5 m/s 743 mm Hg 50%
13:00 +15°C° 0 mm 6 m/s 743 mm Hg 44%
14:00 +15°C° 0 mm 5 m/s 743 mm Hg 44%
15:00 +15°C° 0 mm 5 m/s 743 mm Hg 44%
16:00 +15°C° 0 mm 5 m/s 742 mm Hg 44%
17:00 +13°C° 0 mm 4 m/s 742 mm Hg 50%
18:00 +12°C° 0 mm 3 m/s 742 mm Hg 56%
19:00 +10°C° 0 mm 2 m/s 743 mm Hg 61%
20:00 +10°C° 0 mm 2 m/s 743 mm Hg 62%
21:00 +9°C° 0 mm 3 m/s 743 mm Hg 63%
22:00 +8°C° 0 mm 3 m/s 743 mm Hg 64%
23:00 +8°C° 0 mm 3 m/s 743 mm Hg 71%

Dopodomani, 22 Aprile, Giovedi

Tempo Temperatura Precipitazioni Vento Pressione Umidità
00:00 +7°C° 0 mm 3 m/s 743 mm Hg 78%
01:00 +5°C° 0 mm 4 m/s 744 mm Hg 84%
02:00 +5°C° 0 mm 3 m/s 744 mm Hg 86%
03:00 +5°C° 0 mm 3 m/s 744 mm Hg 87%
04:00 +5°C° 0 mm 3 m/s 744 mm Hg 88%
05:00 +4°C° 0.5 mm 4 m/s 744 mm Hg 85%
06:00 +3°C° 0.5 mm 4 m/s 745 mm Hg 82%
07:00 +2°C° 0.5 mm 5 m/s 745 mm Hg 79%
08:00 +3°C° 0 mm 6 m/s 746 mm Hg 70%
09:00 +4°C° 0 mm 6 m/s 746 mm Hg 61%
10:00 +5°C° 0 mm 7 m/s 746 mm Hg 53%
11:00 +5°C° 0 mm 7 m/s 746 mm Hg 50%
12:00 +6°C° 0 mm 8 m/s 746 mm Hg 47%
13:00 +7°C° 0 mm 8 m/s 746 mm Hg 44%
14:00 +6°C° 0 mm 8 m/s 746 mm Hg 44%
15:00 +6°C° 0 mm 7 m/s 746 mm Hg 45%
16:00 +6°C° 0 mm 7 m/s 746 mm Hg 46%
17:00 +5°C° 0 mm 6 m/s 746 mm Hg 52%
18:00 +5°C° 0 mm 4 m/s 746 mm Hg 58%
19:00 +4°C° 0 mm 3 m/s 746 mm Hg 64%
20:00 +3°C° 0.1 mm 3 m/s 747 mm Hg 71%
21:00 +3°C° 0.1 mm 3 m/s 747 mm Hg 78%
22:00 +2°C° 0.1 mm 3 m/s 747 mm Hg 84%
23:00 +2°C° 0 mm 3 m/s 747 mm Hg 86%

23 Aprile, Venerdi

Tempo Temperatura Precipitazioni Vento Pressione Umidità
00:00 +1°C° 0 mm 3 m/s 747 mm Hg 88%
01:00 +1°C° 0 mm 3 m/s 747 mm Hg 90%
02:00 0°C° 0 mm 3 m/s 747 mm Hg 91%
03:00 0°C° 0 mm 3 m/s 747 mm Hg 92%
04:00 -1°C° 0 mm 4 m/s 748 mm Hg 93%
05:00 -1°C° 0 mm 5 m/s 748 mm Hg 91%
06:00 -1°C° 0 mm 6 m/s 748 mm Hg 90%
07:00 +1°C° 0 mm 6 m/s 748 mm Hg 89%
08:00 +1°C° 0.2 mm 6 m/s 748 mm Hg 88%
09:00 +1°C° 0.2 mm 6 m/s 748 mm Hg 87%
10:00 +1°C° 0.2 mm 6 m/s 749 mm Hg 86%
11:00 +2°C° 0.3 mm 6 m/s 749 mm Hg 78%
12:00 +4°C° 0.3 mm 6 m/s 749 mm Hg 69%
13:00 +5°C° 0.3 mm 6 m/s 749 mm Hg 60%
14:00 +5°C° 0.2 mm 6 m/s 749 mm Hg 58%
15:00 +7°C° 0.2 mm 6 m/s 749 mm Hg 55%
16:00 +7°C° 0.2 mm 6 m/s 750 mm Hg 53%
17:00 +6°C° 0.1 mm 5 m/s 750 mm Hg 58%
18:00 +5°C° 0.1 mm 5 m/s 750 mm Hg 62%
19:00 +4°C° 0.1 mm 4 m/s 750 mm Hg 66%
20:00 +3°C° 0 mm 4 m/s 751 mm Hg 66%
21:00 +1°C° 0 mm 4 m/s 751 mm Hg 66%
22:00 0°C° 0 mm 4 m/s 751 mm Hg 65%
23:00 -1°C° 0 mm 4 m/s 751 mm Hg 66%

24 Aprile, Sabato

Tempo Temperatura Precipitazioni Vento Pressione Umidità
00:00 -1°C° 0 mm 4 m/s 751 mm Hg 67%
01:00 -1°C° 0 mm 3 m/s 751 mm Hg 69%
02:00 -2°C° 0 mm 3 m/s 751 mm Hg 71%
03:00 -2°C° 0 mm 3 m/s 752 mm Hg 74%
04:00 -2°C° 0 mm 3 m/s 752 mm Hg 76%
05:00 -2°C° 0 mm 4 m/s 752 mm Hg 69%
06:00 0°C° 0 mm 4 m/s 752 mm Hg 62%
07:00 +1°C° 0 mm 5 m/s 752 mm Hg 56%
08:00 +3°C° 0 mm 5 m/s 752 mm Hg 50%
09:00 +5°C° 0 mm 5 m/s 751 mm Hg 45%
10:00 +7°C° 0 mm 5 m/s 751 mm Hg 40%
11:00 +7°C° 0.1 mm 5 m/s 751 mm Hg 47%
12:00 +7°C° 0.1 mm 6 m/s 750 mm Hg 54%
13:00 +7°C° 0.1 mm 6 m/s 750 mm Hg 60%
14:00 +6°C° 0.2 mm 7 m/s 750 mm Hg 62%
15:00 +6°C° 0.2 mm 7 m/s 749 mm Hg 63%
16:00 +6°C° 0.2 mm 7 m/s 749 mm Hg 64%
17:00 +4°C° 0.2 mm 7 m/s 749 mm Hg 69%
18:00 +3°C° 0.2 mm 6 m/s 749 mm Hg 75%
19:00 +2°C° 0.2 mm 5 m/s 749 mm Hg 80%
20:00 +2°C° 0.1 mm 5 m/s 750 mm Hg 81%
21:00 +1°C° 0.1 mm 4 m/s 750 mm Hg 83%
22:00 +1°C° 0.1 mm 3 m/s 750 mm Hg 84%
23:00 0°C° 0 mm 3 m/s 751 mm Hg 82%

25 Aprile, Domenica

Tempo Temperatura Precipitazioni Vento Pressione Umidità
00:00 -1°C° 0 mm 3 m/s 751 mm Hg 80%
01:00 -2°C° 0 mm 3 m/s 751 mm Hg 78%
02:00 -2°C° 0 mm 3 m/s 751 mm Hg 79%
03:00 -4°C° 0 mm 3 m/s 751 mm Hg 79%
04:00 -4°C° 0 mm 3 m/s 751 mm Hg 80%
05:00 -3°C° 0 mm 4 m/s 751 mm Hg 76%
06:00 -1°C° 0 mm 4 m/s 751 mm Hg 73%
07:00 0°C° 0 mm 5 m/s 752 mm Hg 69%
08:00 +1°C° 0 mm 5 m/s 751 mm Hg 63%
09:00 +3°C° 0 mm 5 m/s 751 mm Hg 57%
10:00 +5°C° 0 mm 5 m/s 751 mm Hg 51%
11:00 +6°C° 0.3 mm 5 m/s 751 mm Hg 51%
12:00 +5°C° 0.3 mm 6 m/s 751 mm Hg 51%
13:00 +5°C° 0.3 mm 6 m/s 750 mm Hg 52%
14:00 +5°C° 0.3 mm 6 m/s 750 mm Hg 54%
15:00 +5°C° 0.3 mm 6 m/s 750 mm Hg 57%
16:00 +5°C° 0.3 mm 6 m/s 749 mm Hg 60%
17:00 +3°C° 0.2 mm 6 m/s 749 mm Hg 64%
18:00 +2°C° 0.2 mm 5 m/s 749 mm Hg 67%
19:00 +1°C° 0.2 mm 4 m/s 749 mm Hg 71%
20:00 +1°C° 0 mm 4 m/s 749 mm Hg 72%
21:00 0°C° 0 mm 4 m/s 749 mm Hg 72%
22:00 0°C° 0 mm 4 m/s 750 mm Hg 73%
23:00 -1°C° 0 mm 4 m/s 750 mm Hg 75%
Mostrare altro

Abbiamo bisogno del tuo consenso

Meteoprog e i nostri fornitori di servizi possono memorizzare e accedere a dati personali come cookie, identificatori di dispositivi o altre tecnologie simili sul tuo dispositivo e possono elaborare tali dati per personalizzare i contenuti e gli annunci, nonché fornire funzionalità dei social media e analizzarne il traffico.

  • Archiviare e/o accedere alle informazioni sul tuo dispositivo

    Cookie, identificatori di dispositivi o altre informazioni possono essere memorizzati o resi accessibili sul tuo dispositivo per le finalità sopra indicate.

  • Annunci e contenuti personalizzati, misurazione di annunci e contenuti, approfondimenti sul pubblico e sviluppo di prodotti

    Gli annunci e i contenuti possono essere personalizzati in base a un profilo. È possibile aggiungere più dati per personalizzare meglio annunci e contenuti. È possibile misurare il rendimento degli annunci e dei contenuti. È possibile ricavare informazioni sul pubblico che ha visto gli annunci e i contenuti. Tali dati possono essere utilizzati per sviluppare o migliorare l'esperienza, i sistemi e il software dell'utente.

Cliccando su “Accetto”, acconsenti all'uso di cookie, identificatori di dispositivo, web beacon o altre tecnologie simili. Puoi modificare le impostazioni nel browser del tuo dispositivo.

Per determinati scopi, è possibile fare affidamento su interessi legali, piuttosto che sul consenso. Puoi approfondire questo argomento consultando la nostra Informativa sulla privacy e sui cookie.